Location: Cheyres
(46.8153°N, 6.7877°E)
Time: 04:18:32
(UTC+00:00)

Cosmos 1818 - Pass Details

Date: 11 May 2021
Orbit: 771 x 802 km, 65.0° (Epoch: 18 June)

Event Time Altitude Azimuth Distance (km) Brightness Sun altitude
Rises 22:25:18 0° 322° (NW) 3,320 8.0 -23.5°
Reaches altitude 10° 22:27:45 10° 322° (NW) 2,387 7.0 -23.6°
Maximum altitude 22:33:15 85° 235° (SW) 811 3.5 -23.8°
Enters shadow 22:34:11 63° 155° (SSE) 894 3.5 -23.9°
